EZY58B EGKK-EHRD

Flight info

Callsign EZY58B
Flight time 0h 43m
Altitude 23000
Route FRANE M604 GASBA M197 REDFA
Aircraft A20N/M-SDE2E3FGHIRWXY/LB1

Departure

Time 2026-04-17 10:31
Airport London Gatwick Airport (EGKK)

Arrival

Time 2026-04-17 11:14
Airport Rotterdam The Hague Airport (EHRD)
Time Latitude Longitude Altitude Speed Heading
2026-04-17 10:08 51.15431 -0.17703 205 ft 0 kts 167°
2026-04-17 10:15 51.15432 -0.17703 214 ft 1 kts 167°
2026-04-17 10:16 51.15440 -0.17706 210 ft 1 kts 167°
2026-04-17 10:16 51.15447 -0.17708 204 ft 1 kts 167°
2026-04-17 10:16 51.15455 -0.17711 204 ft 1 kts 167°
2026-04-17 10:16 51.15462 -0.17714 204 ft 1 kts 167°
2026-04-17 10:17 51.15470 -0.17717 204 ft 1 kts 166°
2026-04-17 10:17 51.15477 -0.17720 207 ft 1 kts 166°
2026-04-17 10:17 51.15485 -0.17723 209 ft 1 kts 158°
2026-04-17 10:17 51.15492 -0.17727 213 ft 1 kts 142°
2026-04-17 10:18 51.15498 -0.17735 210 ft 1 kts 127°
2026-04-17 10:18 51.15502 -0.17745 208 ft 1 kts 111°
2026-04-17 10:18 51.15505 -0.17757 211 ft 1 kts 90°
2026-04-17 10:18 51.15505 -0.17765 209 ft 0 kts 77°
2026-04-17 10:23 51.15507 -0.17746 213 ft 5 kts 78°
2026-04-17 10:23 51.15521 -0.17639 214 ft 14 kts 78°
2026-04-17 10:23 51.15536 -0.17487 204 ft 11 kts 92°
2026-04-17 10:23 51.15479 -0.17422 209 ft 12 kts 162°
2026-04-17 10:24 51.15394 -0.17390 204 ft 13 kts 168°
2026-04-17 10:24 51.15297 -0.17357 216 ft 15 kts 166°
2026-04-17 10:24 51.15242 -0.17242 207 ft 13 kts 71°
2026-04-17 10:24 51.15255 -0.17150 205 ft 9 kts 77°
2026-04-17 10:25 51.15275 -0.17032 210 ft 13 kts 75°
2026-04-17 10:25 51.15293 -0.16911 211 ft 7 kts 77°
2026-04-17 10:25 51.15279 -0.16832 206 ft 6 kts 141°
2026-04-17 10:25 51.15278 -0.16831 217 ft 0 kts 141°
2026-04-17 10:29 51.15263 -0.16816 212 ft 3 kts 151°
2026-04-17 10:29 51.15244 -0.16802 216 ft 2 kts 158°
2026-04-17 10:29 51.15237 -0.16798 215 ft 1 kts 161°
2026-04-17 10:29 51.15218 -0.16791 205 ft 6 kts 167°
2026-04-17 10:30 51.15149 -0.16789 211 ft 13 kts 197°
2026-04-17 10:30 51.15102 -0.16937 211 ft 19 kts 262°
2026-04-17 10:30 51.15021 -0.17473 211 ft 84 kts 256°
2026-04-17 10:30 51.14850 -0.18703 209 ft 140 kts 258°
2026-04-17 10:31 51.14671 -0.20323 685 ft 150 kts 258°
2026-04-17 10:31 51.14563 -0.21982 1449 ft 151 kts 262°
2026-04-17 10:31 51.14478 -0.23659 2126 ft 155 kts 257°
2026-04-17 10:31 51.14175 -0.25404 2589 ft 174 kts 251°
2026-04-17 10:32 51.13778 -0.27359 3111 ft 196 kts 253°
2026-04-17 10:32 51.13772 -0.29617 3717 ft 216 kts 284°
2026-04-17 10:32 51.14568 -0.31675 3954 ft 227 kts 314°
2026-04-17 10:32 51.15989 -0.32804 3999 ft 236 kts 346°
2026-04-17 10:33 51.17647 -0.32560 4163 ft 248 kts 20°
2026-04-17 10:33 51.19034 -0.30892 4813 ft 256 kts 54°
2026-04-17 10:33 51.19754 -0.28342 6061 ft 251 kts 76°
2026-04-17 10:33 51.20113 -0.25592 7012 ft 257 kts 82°
2026-04-17 10:34 51.20375 -0.22738 7576 ft 261 kts 83°
2026-04-17 10:34 51.20640 -0.19860 8143 ft 268 kts 82°
2026-04-17 10:34 51.21063 -0.16875 8716 ft 292 kts 67°
2026-04-17 10:34 51.22197 -0.14123 9307 ft 302 kts 46°
2026-04-17 10:35 51.23717 -0.11725 9906 ft 305 kts 40°
2026-04-17 10:35 51.25307 -0.09459 10451 ft 319 kts 40°
2026-04-17 10:35 51.27014 -0.07016 11002 ft 340 kts 40°
2026-04-17 10:35 51.28796 -0.04381 11553 ft 358 kts 41°
2026-04-17 10:36 51.30619 -0.01616 12110 ft 365 kts 42°
2026-04-17 10:36 51.32459 0.01216 12680 ft 369 kts 42°
2026-04-17 10:36 51.34312 0.04083 13257 ft 373 kts 42°
2026-04-17 10:36 51.36183 0.06984 13846 ft 376 kts 42°
2026-04-17 10:37 51.38073 0.09914 14375 ft 380 kts 42°
2026-04-17 10:37 51.39979 0.12873 14913 ft 383 kts 42°
2026-04-17 10:37 51.41893 0.15844 15450 ft 387 kts 42°
2026-04-17 10:37 51.43839 0.18870 15999 ft 390 kts 42°
2026-04-17 10:38 51.45791 0.21909 16560 ft 395 kts 42°
2026-04-17 10:38 51.47770 0.24994 17372 ft 398 kts 41°
2026-04-17 10:38 51.49771 0.28116 18155 ft 403 kts 41°
2026-04-17 10:38 51.51788 0.31268 18846 ft 408 kts 41°
2026-04-17 10:39 51.53833 0.34468 19518 ft 412 kts 41°
2026-04-17 10:39 51.55896 0.37700 20175 ft 417 kts 41°
2026-04-17 10:39 51.57983 0.40973 20844 ft 421 kts 41°
2026-04-17 10:39 51.60091 0.44285 21484 ft 426 kts 41°
2026-04-17 10:40 51.62224 0.47641 22120 ft 430 kts 41°
2026-04-17 10:40 51.64378 0.51035 22765 ft 435 kts 41°
2026-04-17 10:40 51.66551 0.54462 23080 ft 438 kts 41°
2026-04-17 10:40 51.68709 0.57947 23174 ft 440 kts 46°
2026-04-17 10:41 51.70421 0.61965 23179 ft 444 kts 62°
2026-04-17 10:41 51.71596 0.66577 23179 ft 445 kts 69°
2026-04-17 10:41 51.72647 0.71269 23180 ft 445 kts 69°
2026-04-17 10:41 51.73687 0.75970 23177 ft 445 kts 69°
2026-04-17 10:42 51.74734 0.80668 23176 ft 445 kts 69°
2026-04-17 10:42 51.75791 0.85369 23171 ft 445 kts 69°
2026-04-17 10:42 51.76841 0.90054 23173 ft 444 kts 69°
2026-04-17 10:42 51.77887 0.94755 23167 ft 444 kts 69°
2026-04-17 10:43 51.78936 0.99447 23166 ft 444 kts 69°
2026-04-17 10:43 51.79987 1.04131 23164 ft 444 kts 69°
2026-04-17 10:43 51.81042 1.08821 23164 ft 444 kts 69°
2026-04-17 10:43 51.82097 1.13513 23164 ft 444 kts 69°
2026-04-17 10:44 51.83151 1.18209 23165 ft 444 kts 69°
2026-04-17 10:44 51.84200 1.22894 23165 ft 444 kts 69°
2026-04-17 10:44 51.85236 1.27534 23168 ft 444 kts 69°
2026-04-17 10:44 51.86283 1.32233 23168 ft 444 kts 69°
2026-04-17 10:45 51.87325 1.36922 23166 ft 443 kts 69°
2026-04-17 10:45 51.88368 1.41628 23168 ft 443 kts 69°
2026-04-17 10:45 51.89407 1.46324 23169 ft 443 kts 69°
2026-04-17 10:45 51.90443 1.51019 23171 ft 443 kts 69°
2026-04-17 10:46 51.91477 1.55720 23172 ft 443 kts 69°
2026-04-17 10:46 51.92509 1.60422 23171 ft 443 kts 69°
2026-04-17 10:46 51.93540 1.65127 23177 ft 443 kts 69°
2026-04-17 10:46 51.94568 1.69832 23166 ft 443 kts 69°
2026-04-17 10:47 51.95595 1.74546 22956 ft 443 kts 69°
2026-04-17 10:47 51.96615 1.79237 22690 ft 440 kts 69°
2026-04-17 10:47 51.97625 1.83895 22425 ft 437 kts 69°
2026-04-17 10:47 51.98630 1.88539 22160 ft 435 kts 69°
2026-04-17 10:48 51.99628 1.93161 21901 ft 433 kts 69°
2026-04-17 10:48 52.00624 1.97780 21638 ft 431 kts 69°
2026-04-17 10:48 52.01609 2.02363 21378 ft 429 kts 69°
2026-04-17 10:48 52.02587 2.06927 21134 ft 427 kts 69°
2026-04-17 10:49 52.03561 2.11480 20891 ft 425 kts 69°
2026-04-17 10:49 52.04527 2.16006 20629 ft 424 kts 70°
2026-04-17 10:49 52.05489 2.20519 20379 ft 422 kts 70°
2026-04-17 10:49 52.06444 2.25016 20138 ft 420 kts 70°
2026-04-17 10:50 52.07393 2.29493 19892 ft 418 kts 70°
2026-04-17 10:50 52.08339 2.33965 19640 ft 416 kts 70°
2026-04-17 10:50 52.09276 2.38404 19400 ft 414 kts 70°
2026-04-17 10:50 52.10208 2.42833 19176 ft 413 kts 70°
2026-04-17 10:51 52.10800 2.47388 18934 ft 412 kts 86°
2026-04-17 10:51 52.10581 2.51953 18699 ft 410 kts 104°
2026-04-17 10:51 52.09632 2.56286 18477 ft 406 kts 116°
2026-04-17 10:51 52.08432 2.60428 18201 ft 404 kts 118°
2026-04-17 10:52 52.07196 2.64523 17922 ft 402 kts 118°
2026-04-17 10:52 52.05983 2.68608 17379 ft 402 kts 117°
2026-04-17 10:52 52.04798 2.72701 16815 ft 398 kts 117°
2026-04-17 10:52 52.03643 2.76762 16254 ft 394 kts 117°
2026-04-17 10:53 52.02510 2.80779 15700 ft 389 kts 117°
2026-04-17 10:53 52.01390 2.84754 15141 ft 385 kts 117°
2026-04-17 10:53 52.00278 2.88699 14599 ft 382 kts 117°
2026-04-17 10:53 51.99179 2.92588 14051 ft 378 kts 117°
2026-04-17 10:54 51.98087 2.96447 13483 ft 374 kts 117°
2026-04-17 10:54 51.97008 3.00252 12942 ft 369 kts 117°
2026-04-17 10:54 51.95942 3.04004 12433 ft 364 kts 118°
2026-04-17 10:54 51.94887 3.07712 11898 ft 360 kts 118°
2026-04-17 10:55 51.93845 3.11369 11385 ft 356 kts 118°
2026-04-17 10:55 51.92809 3.14998 10868 ft 352 kts 118°
2026-04-17 10:55 51.91788 3.18571 10510 ft 344 kts 118°
2026-04-17 10:55 51.90885 3.22081 10356 ft 333 kts 107°
2026-04-17 10:56 51.90666 3.25747 10213 ft 323 kts 92°
2026-04-17 10:56 51.90668 3.29313 10056 ft 311 kts 92°
2026-04-17 10:56 51.90673 3.32784 9877 ft 309 kts 92°
2026-04-17 10:56 51.90676 3.36270 9733 ft 309 kts 92°
2026-04-17 10:57 51.90678 3.39734 9572 ft 307 kts 92°
2026-04-17 10:57 51.90680 3.43180 9410 ft 305 kts 92°
2026-04-17 10:57 51.90680 3.46611 9252 ft 304 kts 92°
2026-04-17 10:57 51.90681 3.49989 8939 ft 305 kts 92°
2026-04-17 10:58 51.90679 3.53457 8288 ft 312 kts 92°
2026-04-17 10:58 51.90673 3.57050 7330 ft 327 kts 92°
2026-04-17 10:58 51.90660 3.60818 6341 ft 341 kts 92°
2026-04-17 10:58 51.90638 3.64716 5307 ft 351 kts 92°
2026-04-17 10:59 51.90617 3.68681 4645 ft 349 kts 92°
2026-04-17 10:59 51.90596 3.72543 4351 ft 335 kts 92°
2026-04-17 10:59 51.90575 3.76223 4221 ft 317 kts 92°
2026-04-17 10:59 51.90557 3.79683 4203 ft 298 kts 92°
2026-04-17 11:00 51.90545 3.82932 4205 ft 279 kts 92°
2026-04-17 11:00 51.90540 3.86026 4210 ft 277 kts 92°
2026-04-17 11:00 51.90527 3.89148 4210 ft 276 kts 92°
2026-04-17 11:00 51.90520 3.92250 4209 ft 276 kts 92°
2026-04-17 11:01 51.90510 3.95352 4205 ft 276 kts 92°
2026-04-17 11:01 51.90501 3.98425 4208 ft 277 kts 92°
2026-04-17 11:01 51.90498 4.01577 4204 ft 276 kts 92°
2026-04-17 11:01 51.90496 4.04691 4212 ft 277 kts 92°
2026-04-17 11:02 51.90494 4.07817 4211 ft 278 kts 92°
2026-04-17 11:02 51.90496 4.10897 4210 ft 278 kts 92°
2026-04-17 11:02 51.90498 4.14034 4215 ft 279 kts 92°
2026-04-17 11:02 51.90505 4.17156 4214 ft 276 kts 92°
2026-04-17 11:03 51.90505 4.20265 4211 ft 278 kts 92°
2026-04-17 11:03 51.90506 4.23384 4144 ft 276 kts 92°
2026-04-17 11:03 51.90509 4.26477 4015 ft 276 kts 92°
2026-04-17 11:03 51.90507 4.29596 3995 ft 277 kts 92°
2026-04-17 11:04 51.90506 4.32707 3996 ft 277 kts 92°
2026-04-17 11:04 51.90505 4.35829 3999 ft 278 kts 92°
2026-04-17 11:04 51.90497 4.38970 3996 ft 278 kts 92°
2026-04-17 11:04 51.90489 4.42087 3999 ft 276 kts 92°
2026-04-17 11:05 51.90484 4.45202 4000 ft 278 kts 92°
2026-04-17 11:05 51.90477 4.48339 4000 ft 277 kts 92°
2026-04-17 11:05 51.90468 4.51452 4000 ft 277 kts 92°
2026-04-17 11:05 51.90470 4.54564 3994 ft 278 kts 84°
2026-04-17 11:06 51.91103 4.57496 3943 ft 277 kts 59°
2026-04-17 11:06 51.92126 4.60130 3675 ft 276 kts 57°
2026-04-17 11:06 51.93150 4.62745 3388 ft 272 kts 57°
2026-04-17 11:06 51.94137 4.65291 3272 ft 261 kts 57°
2026-04-17 11:07 51.95064 4.67691 3171 ft 251 kts 57°
2026-04-17 11:07 51.95980 4.70060 3005 ft 244 kts 57°
2026-04-17 11:07 51.96861 4.72349 2924 ft 234 kts 57°
2026-04-17 11:07 51.97715 4.74551 2818 ft 227 kts 57°
2026-04-17 11:08 51.98544 4.76683 2676 ft 222 kts 56°
2026-04-17 11:08 51.99570 4.78477 2393 ft 219 kts 27°
2026-04-17 11:08 52.00990 4.79096 2151 ft 209 kts 352°
2026-04-17 11:08 52.02291 4.78353 2046 ft 197 kts 324°
2026-04-17 11:09 52.03477 4.77134 1998 ft 201 kts 322°
2026-04-17 11:09 52.04646 4.75921 1995 ft 195 kts 322°
2026-04-17 11:09 52.05733 4.74714 1998 ft 187 kts 311°
2026-04-17 11:10 52.06227 4.70946 1998 ft 178 kts 251°
2026-04-17 11:10 52.05701 4.69115 1997 ft 179 kts 240°
2026-04-17 11:10 52.05040 4.67418 1996 ft 176 kts 237°
2026-04-17 11:10 52.04370 4.65752 2002 ft 178 kts 237°
2026-04-17 11:11 52.03687 4.64034 1999 ft 186 kts 237°
2026-04-17 11:11 52.02985 4.62278 2001 ft 184 kts 237°
2026-04-17 11:11 52.02278 4.60510 1995 ft 188 kts 237°
2026-04-17 11:11 52.01576 4.58740 1987 ft 187 kts 237°
2026-04-17 11:12 52.00862 4.56960 1758 ft 188 kts 237°
2026-04-17 11:12 52.00153 4.55180 1485 ft 190 kts 237°
2026-04-17 11:12 51.99438 4.53396 1233 ft 185 kts 236°
2026-04-17 11:12 51.98751 4.51674 977 ft 178 kts 237°
2026-04-17 11:13 51.98104 4.50055 735 ft 163 kts 236°
2026-04-17 11:13 51.97518 4.48589 519 ft 146 kts 234°
2026-04-17 11:13 51.96974 4.47232 330 ft 142 kts 235°
2026-04-17 11:13 51.96471 4.45973 151 ft 128 kts 233°
2026-04-17 11:14 51.95977 4.44753 -3 ft 127 kts 232°
2026-04-17 11:14 51.95622 4.43884 -5 ft 52 kts 241°
2026-04-17 11:14 51.95476 4.43603 -5 ft 29 kts 218°
2026-04-17 11:14 51.95372 4.43485 -5 ft 11 kts 213°
2026-04-17 11:15 51.95299 4.43415 -5 ft 0 kts 195°
2026-04-17 11:15 51.95285 4.43413 -5 ft 4 kts 181°
2026-04-17 11:15 51.95267 4.43429 -6 ft 4 kts 141°
2026-04-17 11:15 51.95205 4.43489 -6 ft 15 kts 150°
2026-04-17 11:16 51.95124 4.43568 -6 ft 7 kts 148°
2026-04-17 11:16 51.95090 4.43601 -6 ft 10 kts 148°
2026-04-17 11:16 51.95069 4.43622 -6 ft 5 kts 149°
2026-04-17 11:16 51.95001 4.43629 -6 ft 9 kts 234°
2026-04-17 11:17 51.94981 4.43547 -6 ft 8 kts 288°
2026-04-17 11:17 51.95016 4.43506 -6 ft 0 kts 331°